Flag for Brazil Weather past 2 weeks in Salvador, Bahia, Brazil

Now
79 °F

Passing clouds.


Feels Like: 81 °F
Forecast: 77 / 84 °F
Wind: 14 mph from Southeast

Location: Salvador Aeroporto

Current Time: Jan 29, 2015 at 4:26:11 AM

Latest Report: Jan 29, 2015 at 4:00 AM


Visibility: N/A

Pressure: 29.92 "Hg

Humidity: 74%

Dew point: 70 °F

Location of SalvadorLocation

Historic Weather in Salvador — Graph

°F

Salvador temperature yesterday

Maximum temperature yesterday: 86 °F (at 12:00 PM)
Minimum temperature yesterday: 75 °F (at 4:00 AM)
Average temperature yesterday: 82 °F

Past Weeks' High & Low Weather Summary

 TemperatureHumidityPressure
High86 °F (Jan 14, 1:00 PM)89% (Jan 25, 4:00 AM)30.04 "Hg (Jan 25, 4:00 AM)
Low73 °F (Jan 14, 5:00 AM)55% (Jan 18, 12:00 PM)29.86 "Hg (Jan 20, 3:00 PM)
Average81 °F70%29.95 "Hg
* Reported Jan 14 3:00 AM — Jan 29 3:00 AM, Salvador, Weather by CustomWeather, © 2014

Note: Actual official high and low records may vary slightly from our data, if they occured in-between our weather recording intervals... More about our weather records

Advertising

Salvador weather history for previous 24 hours

 ConditionsComfort  
Time TempWeatherWind HumidityBarometerVisibility
3:00 AM
Jan 29
81 °FPassing clouds.7 mph70%29.89 "HgN/A
2:00 AM81 °FPassing clouds.8 mph70%29.92 "HgN/A
1:00 AM81 °FPassing clouds.7 mph70%29.92 "HgN/A
12:00 AM81 °FPassing clouds.7 mph70%29.95 "HgN/A
11:00 PM
Jan 28
81 °FPassing clouds.9 mph66%29.98 "HgN/A
10:00 PM81 °FPassing clouds.9 mph66%29.95 "HgN/A
9:00 PM81 °FPassing clouds.10 mph66%29.95 "HgN/A
8:00 PM81 °FPassing clouds.10 mph70%29.95 "HgN/A
7:00 PM82 °FPassing clouds.10 mph62%29.92 "HgN/A
6:00 PM82 °FPassing clouds.9 mph62%29.92 "HgN/A
5:00 PM84 °FPassing clouds.9 mph58%29.92 "HgN/A
4:00 PM84 °FSunny.13 mph58%29.92 "Hg10 mi
3:00 PM86 °FSunny.12 mph55%29.92 "Hg10 mi
2:00 PM86 °FSunny.9 mph55%29.95 "Hg10 mi
1:00 PM86 °FPassing clouds.9 mph55%29.95 "HgN/A
12:00 PM86 °FPassing clouds.10 mph59%29.98 "HgN/A
11:00 AM84 °FPassing clouds.10 mph58%29.98 "HgN/A
10:00 AM84 °FPassing clouds.8 mph58%30.01 "HgN/A
9:00 AM84 °FPassing clouds.9 mph62%30.01 "HgN/A
8:00 AM82 °FScattered clouds.8 mph66%29.98 "HgN/A
7:00 AM82 °FScattered clouds.7 mph62%29.98 "HgN/A
6:00 AM77 °FPassing clouds.6 mph74%29.95 "HgN/A
5:00 AM77 °FPassing clouds.7 mph74%29.95 "HgN/A
4:00 AM75 °FPassing clouds.7 mph78%29.95 "HgN/A
Weather by CustomWeather, © 2014

See weather overviewHow to use our weather pages